Location: Unspecified
(0.0000°N, 0.0000°E)
Time: 06:17:00
(UTC+00:00)

Courier 1B - Pass Details

Date: 03 October 2023
Orbit: 962 x 1208 km, 28.3° (Epoch: 06 December)

Event Time Altitude Azimuth Distance (km) Brightness Sun altitude
Rises 19:47:45 0° 282° (WNW) 4,064 11.8 -29.6°
Reaches altitude 10° 19:50:53 10° 274° (W) 3,076 11.0 -30.4°
Maximum altitude 19:57:45 37° 210° (SSW) 1,689 8.9 -32.1°
Enters shadow 19:59:57 31° 176° (S) 1,856 8.9 -32.6°
Drops below altitude 10° 20:04:19 10° 144° (SE) 2,921 - -33.7°
Sets 20:07:14 0° 136° (SE) 3,838 - -34.5°
